{"data":{"norad_id":65179,"intl_designator":"2025-175F","name":"STARLINK-34932","alt_names":[],"object_type":"PAYLOAD","status":"ACTIVE","operator":null,"country":"US","launch_date":"2025-08-14","launch_site_code":"AFWTR","launch_vehicle":null,"mission":null,"orbit_class":"UNKNOWN","rcs_meters":null,"size_class":null,"mass_kg":null,"dimensions":null,"purposes":["comms"],"wikipedia_slug":null,"has_3d_model":false,"image_url":null,"decayed_at":null,"tle_current":{"epoch":"2026-05-25T05:17:37.989312Z","epoch_age_seconds":59268,"freshness":"FRESH","line1":"1 65179U 25175F   26145.22057858  .00013956  00000+0  96957-3 0  9995","line2":"2 65179  97.4481  17.6744 0001600 101.4644 258.6763 15.05642329 44157","mean_motion":15.05642329,"eccentricity":0.00016,"inclination_deg":97.4481,"raan_deg":17.6744,"arg_perigee_deg":101.4644,"mean_anomaly_deg":258.6763,"bstar":0.00096957,"rev_number":4415,"period_min":95.640244184447,"perigee_km":548.42625670153,"apogee_km":550.64311164047,"semimajor_km":6927.671684171,"source":"CELESTRAK","updated_at":"2026-05-25T13:38:20.689762Z"}}}